Radiation Dose at Monitoring Post of Fukushima Daini Nuclear Power Station
Date,Time,MP-1(microSv/h),MP-2(microSv/h),MP-3(microSv/h),MP-4(microSv/h),MP-5(microSv/h),MP-6(microSv/h),MP-7(microSv/h),Wind Direction,Wind Velocity(m/s),Rain
2022/01/11,00:00,0.162,0.150,0.233,0.228,0.229,0.127,0.081,-,CALM,No
2022/01/11,00:10,0.163,0.149,0.233,0.228,0.228,0.126,0.080,-,CALM,No
2022/01/11,00:20,0.163,0.150,0.233,0.228,0.228,0.127,0.080,north-northwest,1.0,No
2022/01/11,00:30,0.163,0.151,0.231,0.228,0.230,0.126,0.081,northwest,1.3,No
2022/01/11,00:40,0.163,0.150,0.233,0.227,0.230,0.127,0.081,north,1.4,No
2022/01/11,00:50,0.162,0.150,0.233,0.227,0.228,0.126,0.081,north-northwest,0.8,No
2022/01/11,01:00,0.163,0.150,0.232,0.227,0.228,0.126,0.081,north,0.8,No
2022/01/11,01:10,0.163,0.150,0.232,0.228,0.228,0.126,0.081,north-northwest,0.7,No
2022/01/11,01:20,0.162,0.150,0.233,0.228,0.229,0.127,0.081,north-northwest,0.7,No
2022/01/11,01:30,0.163,0.149,0.233,0.228,0.229,0.126,0.080,northwest,0.7,No
2022/01/11,01:40,0.163,0.150,0.232,0.228,0.228,0.127,0.081,northwest,0.5,No
2022/01/11,01:50,0.163,0.149,0.233,0.229,0.229,0.126,0.081,-,CALM,No
2022/01/11,02:00,0.162,0.150,0.232,0.229,0.228,0.126,0.081,-,CALM,No
2022/01/11,02:10,0.163,0.150,0.233,0.228,0.229,0.126,0.081,-,CALM,No
2022/01/11,02:20,0.162,0.149,0.233,0.228,0.229,0.127,0.080,-,CALM,No
2022/01/11,02:30,0.162,0.150,0.232,0.227,0.229,0.127,0.081,-,CALM,No
2022/01/11,02:40,0.162,0.149,0.234,0.229,0.231,0.127,0.081,-,CALM,No
2022/01/11,02:50,0.162,0.150,0.233,0.228,0.229,0.127,0.081,-,CALM,No
2022/01/11,03:00,0.163,0.150,0.232,0.228,0.229,0.127,0.081,-,CALM,No
2022/01/11,03:10,0.162,0.150,0.233,0.227,0.229,0.126,0.081,south-southwest,0.5,No
2022/01/11,03:20,0.162,0.150,0.232,0.227,0.229,0.127,0.080,-,CALM,No
2022/01/11,03:30,0.162,0.150,0.232,0.227,0.229,0.127,0.081,-,CALM,No
2022/01/11,03:40,0.162,0.150,0.233,0.228,0.228,0.127,0.082,-,CALM,No
2022/01/11,03:50,0.163,0.150,0.233,0.228,0.229,0.127,0.081,south,0.5,No
2022/01/11,04:00,0.163,0.151,0.232,0.228,0.229,0.127,0.080,-,CALM,No
2022/01/11,04:10,0.163,0.150,0.233,0.229,0.230,0.126,0.081,south-southeast,0.7,No
2022/01/11,04:20,0.163,0.150,0.231,0.227,0.229,0.127,0.081,southeast,0.8,No
2022/01/11,04:30,0.163,0.150,0.232,0.229,0.230,0.127,0.080,east,0.7,No
2022/01/11,04:40,0.163,0.151,0.233,0.228,0.229,0.126,0.081,-,CALM,No
2022/01/11,04:50,0.163,0.150,0.234,0.228,0.229,0.127,0.081,south-southeast,0.7,No
2022/01/11,05:00,0.162,0.151,0.234,0.228,0.229,0.127,0.081,south-southeast,0.5,No
2022/01/11,05:10,0.163,0.150,0.233,0.227,0.230,0.127,0.081,south,1.0,No
2022/01/11,05:20,0.163,0.149,0.233,0.229,0.227,0.127,0.082,south,0.5,No
2022/01/11,05:30,0.163,0.149,0.234,0.227,0.229,0.127,0.081,south-southwest,0.5,No
2022/01/11,05:40,0.163,0.151,0.233,0.228,0.229,0.127,0.081,south-southwest,1.4,No
2022/01/11,05:50,0.162,0.150,0.233,0.228,0.229,0.127,0.082,-,CALM,No
2022/01/11,06:00,0.163,0.150,0.233,0.227,0.229,0.128,0.081,-,CALM,No
2022/01/11,06:10,0.161,0.151,0.233,0.228,0.229,0.127,0.081,north,1.3,No
2022/01/11,06:20,0.162,0.151,0.233,0.229,0.229,0.127,0.082,north-northwest,1.6,No
2022/01/11,06:30,0.163,0.151,0.233,0.229,0.230,0.127,0.081,north-northwest,1.8,No
2022/01/11,06:40,0.163,0.150,0.233,0.228,0.229,0.127,0.081,north-northwest,1.6,No
2022/01/11,06:50,0.163,0.150,0.232,0.227,0.229,0.128,0.081,north-northwest,2.7,No
2022/01/11,07:00,0.163,0.151,0.233,0.228,0.229,0.128,0.081,north-northwest,2.7,No
2022/01/11,07:10,0.163,0.150,0.233,0.229,0.230,0.127,0.081,north-northwest,2.4,No
2022/01/11,07:20,0.164,0.150,0.233,0.228,0.230,0.128,0.081,north-northwest,2.7,Yes
2022/01/11,07:30,0.164,0.151,0.233,0.228,0.230,0.127,0.082,north-northwest,4.1,Yes
2022/01/11,07:40,0.164,0.152,0.234,0.230,0.230,0.129,0.082,north,5.2,Yes
2022/01/11,07:50,0.164,0.152,0.233,0.231,0.232,0.129,0.082,north-northwest,4.3,Yes
2022/01/11,08:00,0.165,0.153,0.235,0.231,0.230,0.128,0.083,northwest,5.4,Yes
2022/01/11,08:10,0.165,0.152,0.236,0.229,0.231,0.129,0.083,north-northwest,5.7,Yes
2022/01/11,08:20,0.166,0.154,0.235,0.230,0.232,0.130,0.083,northwest,6.5,Yes
2022/01/11,08:30,0.164,0.153,0.235,0.230,0.232,0.130,0.083,north-northwest,6.0,Yes
2022/01/11,08:40,0.165,0.153,0.235,0.231,0.231,0.129,0.084,north-northwest,6.0,Yes
2022/01/11,08:50,0.165,0.153,0.236,0.231,0.231,0.130,0.083,northwest,5.5,Yes
2022/01/11,09:00,0.166,0.154,0.236,0.230,0.232,0.131,0.085,northwest,5.1,Yes
2022/01/11,09:10,0.168,0.155,0.236,0.230,0.233,0.131,0.086,northwest,4.4,Yes
2022/01/11,09:20,0.167,0.155,0.236,0.231,0.232,0.132,0.086,northwest,4.1,Yes
2022/01/11,09:30,0.167,0.154,0.236,0.230,0.231,0.132,0.085,northwest,4.3,Yes
2022/01/11,09:40,0.168,0.155,0.235,0.230,0.232,0.132,0.086,north-northwest,1.1,Yes
2022/01/11,09:50,0.169,0.156,0.236,0.231,0.233,0.133,0.087,north,9.8,Yes
2022/01/11,10:00,0.168,0.156,0.236,0.232,0.233,0.134,0.089,northwest,4.1,Yes
2022/01/11,10:10,0.169,0.155,0.236,0.231,0.233,0.134,0.089,northwest,4.3,Yes
2022/01/11,10:20,0.169,0.158,0.236,0.232,0.234,0.135,0.089,northwest,4.8,Yes
2022/01/11,10:30,0.169,0.157,0.235,0.231,0.233,0.134,0.089,northwest,5.4,Yes
2022/01/11,10:40,0.168,0.156,0.235,0.230,0.233,0.134,0.088,north-northwest,6.6,Yes
2022/01/11,10:50,0.168,0.156,0.236,0.229,0.233,0.133,0.089,-,CALM,Yes
2022/01/11,11:00,0.169,0.156,0.233,0.229,0.231,0.134,0.088,north-northwest,5.4,Yes
2022/01/11,11:10,0.167,0.156,0.232,0.228,0.233,0.133,0.088,northwest,5.1,Yes
2022/01/11,11:20,0.167,0.156,0.233,0.229,0.232,0.132,0.087,-,CALM,Yes
2022/01/11,11:30,0.167,0.156,0.234,0.228,0.232,0.133,0.088,-,CALM,Yes
2022/01/11,11:40,0.169,0.156,0.234,0.228,0.233,0.134,0.089,-,CALM,Yes
2022/01/11,11:50,0.169,0.157,0.233,0.229,0.232,0.135,0.089,north-northwest,7.6,Yes
2022/01/11,12:00,0.169,0.155,0.233,0.229,0.233,0.135,0.090,-,CALM,Yes
2022/01/11,12:10,0.168,0.158,0.233,0.229,0.232,0.135,0.090,north-northwest,8.1,Yes
2022/01/11,12:20,0.169,0.157,0.234,0.228,0.233,0.134,0.091,north-northwest,8.0,Yes
2022/01/11,12:30,0.170,0.158,0.234,0.229,0.234,0.135,0.091,north-northwest,8.0,Yes
2022/01/11,12:40,0.169,0.156,0.234,0.228,0.232,0.135,0.091,north-northwest,7.3,Yes
2022/01/11,12:50,0.168,0.158,0.233,0.228,0.234,0.133,0.091,north-northwest,6.4,Yes
2022/01/11,13:00,0.168,0.157,0.233,0.229,0.233,0.133,0.090,north-northwest,6.0,Yes
2022/01/11,13:10,0.168,0.156,0.233,0.227,0.232,0.132,0.089,north-northwest,8.0,Yes
2022/01/11,13:20,0.165,0.154,0.232,0.226,0.231,0.131,0.086,northwest,6.4,Yes
2022/01/11,13:30,0.163,0.154,0.229,0.224,0.230,0.130,0.086,north-northwest,5.1,Yes
2022/01/11,13:40,0.164,0.151,0.228,0.222,0.228,0.127,0.085,northwest,6.5,Yes
2022/01/11,13:50,0.163,0.150,0.226,0.222,0.225,0.126,0.084,north-northwest,5.9,Yes
2022/01/11,14:00,0.161,0.150,0.226,0.222,0.227,0.127,0.082,north-northwest,6.7,Yes
2022/01/11,14:10,0.160,0.148,0.226,0.221,0.227,0.126,0.081,north-northwest,7.8,Yes
2022/01/11,14:20,0.161,0.148,0.225,0.222,0.227,0.126,0.082,north-northwest,7.4,Yes
2022/01/11,14:30,0.162,0.151,0.228,0.223,0.228,0.127,0.083,north-northwest,8.5,Yes
2022/01/11,14:40,0.163,0.150,0.228,0.223,0.228,0.127,0.084,north-northwest,7.7,Yes
2022/01/11,14:50,0.162,0.152,0.228,0.223,0.228,0.129,0.086,north-northwest,6.9,Yes
2022/01/11,15:00,0.165,0.152,0.229,0.224,0.229,0.130,0.086,north-northwest,7.5,Yes
2022/01/11,15:10,0.164,0.152,0.229,0.223,0.229,0.131,0.087,north-northwest,6.6,Yes
2022/01/11,15:20,0.164,0.153,0.230,0.226,0.232,0.130,0.087,north-northwest,6.0,Yes
2022/01/11,15:30,0.164,0.152,0.229,0.223,0.229,0.130,0.087,north-northwest,6.4,Yes
2022/01/11,15:40,0.164,0.154,0.229,0.223,0.230,0.129,0.086,north-northwest,6.3,Yes
2022/01/11,15:50,0.165,0.153,0.230,0.223,0.231,0.131,0.087,north-northwest,5.2,Yes
2022/01/11,16:00,0.165,0.154,0.229,0.224,0.230,0.131,0.087,north,3.8,Yes
2022/01/11,16:10,0.164,0.154,0.230,0.223,0.230,0.131,0.088,north,3.2,Yes
2022/01/11,16:20,0.164,0.153,0.230,0.224,0.231,0.131,0.088,north-northeast,3.0,Yes
2022/01/11,16:30,0.164,0.153,0.229,0.224,0.231,0.131,0.088,north-northeast,3.0,Yes
2022/01/11,16:40,0.164,0.153,0.228,0.223,0.230,0.130,0.088,north,1.9,Yes
2022/01/11,16:50,0.165,0.152,0.229,0.224,0.231,0.130,0.087,north-northeast,1.4,Yes
2022/01/11,17:00,0.163,0.151,0.228,0.222,0.230,0.129,0.087,north,1.3,Yes
2022/01/11,17:10,0.162,0.152,0.228,0.224,0.230,0.129,0.085,north,1.1,Yes
2022/01/11,17:20,0.163,0.152,0.228,0.225,0.230,0.129,0.087,north-northeast,1.0,Yes
2022/01/11,17:30,0.163,0.151,0.228,0.223,0.229,0.129,0.087,north-northwest,0.5,Yes
2022/01/11,17:40,0.163,0.151,0.230,0.224,0.230,0.129,0.087,west-northwest,0.8,Yes
2022/01/11,17:50,0.164,0.153,0.230,0.225,0.231,0.130,0.087,north-northwest,1.0,Yes
2022/01/11,18:00,0.166,0.154,0.230,0.226,0.231,0.132,0.088,north-northwest,1.4,Yes
2022/01/11,18:10,0.165,0.154,0.231,0.225,0.231,0.132,0.088,northwest,1.9,Yes
2022/01/11,18:20,0.165,0.154,0.230,0.224,0.232,0.131,0.088,northwest,3.0,Yes
2022/01/11,18:30,0.166,0.156,0.230,0.228,0.232,0.133,0.089,northwest,5.1,Yes
2022/01/11,18:40,0.168,0.156,0.232,0.228,0.234,0.135,0.091,northwest,6.1,Yes
2022/01/11,18:50,0.169,0.159,0.233,0.228,0.235,0.136,0.093,northwest,4.1,Yes
2022/01/11,19:00,0.168,0.159,0.235,0.228,0.236,0.137,0.093,west-northwest,3.0,Yes
2022/01/11,19:10,0.169,0.157,0.234,0.230,0.236,0.136,0.094,west-northwest,4.6,Yes
2022/01/11,19:20,0.168,0.158,0.236,0.231,0.238,0.138,0.095,west-northwest,5.5,Yes
2022/01/11,19:30,0.168,0.158,0.235,0.232,0.238,0.140,0.096,north-northwest,3.2,Yes
2022/01/11,19:40,0.167,0.157,0.236,0.231,0.237,0.139,0.094,north-northwest,3.3,Yes
2022/01/11,19:50,0.166,0.155,0.234,0.229,0.236,0.136,0.092,north,3.8,Yes
2022/01/11,20:00,0.163,0.154,0.231,0.228,0.233,0.134,0.091,northwest,4.4,Yes
2022/01/11,20:10,0.162,0.152,0.229,0.224,0.233,0.131,0.088,northwest,4.3,No
2022/01/11,20:20,0.160,0.151,0.227,0.222,0.230,0.129,0.086,north-northwest,4.4,No
2022/01/11,20:30,0.159,0.149,0.226,0.222,0.229,0.127,0.085,northwest,4.4,No
2022/01/11,20:40,0.158,0.148,0.226,0.221,0.227,0.126,0.083,north-northwest,4.1,No
2022/01/11,20:50,0.157,0.147,0.225,0.220,0.227,0.124,0.082,north-northwest,5.2,Yes
2022/01/11,21:00,0.157,0.146,0.224,0.218,0.227,0.124,0.081,north,3.0,Yes
2022/01/11,21:10,0.156,0.145,0.224,0.219,0.225,0.124,0.080,northwest,5.1,No
2022/01/11,21:20,0.156,0.146,0.222,0.218,0.226,0.123,0.080,northwest,6.5,Yes
2022/01/11,21:30,0.156,0.144,0.222,0.217,0.225,0.123,0.080,northwest,8.1,Yes
2022/01/11,21:40,0.156,0.144,0.222,0.218,0.225,0.122,0.079,northwest,9.9,No
2022/01/11,21:50,0.154,0.144,0.221,0.217,0.224,0.122,0.079,west-northwest,13.0,No
2022/01/11,22:00,0.155,0.144,0.222,0.216,0.225,0.122,0.079,west-northwest,12.1,No
2022/01/11,22:10,0.156,0.144,0.221,0.217,0.224,0.122,0.078,west-northwest,14.6,No
2022/01/11,22:20,0.156,0.145,0.221,0.217,0.224,0.122,0.079,west-northwest,13.5,No
2022/01/11,22:30,0.156,0.145,0.222,0.218,0.224,0.121,0.079,west-northwest,15.4,No
2022/01/11,22:40,0.155,0.145,0.223,0.219,0.224,0.122,0.079,west-northwest,15.1,No
2022/01/11,22:50,0.156,0.144,0.223,0.218,0.225,0.123,0.079,west,14.5,No
2022/01/11,23:00,0.157,0.145,0.222,0.218,0.225,0.121,0.078,west-northwest,7.5,No
2022/01/11,23:10,0.156,0.145,0.223,0.217,0.224,0.123,0.078,west-northwest,8.4,No
2022/01/11,23:20,0.156,0.145,0.222,0.217,0.224,0.122,0.078,northwest,7.4,No
2022/01/11,23:30,0.157,0.145,0.224,0.218,0.225,0.121,0.078,northwest,8.8,No
2022/01/11,23:40,0.157,0.145,0.223,0.217,0.223,0.122,0.078,north-northwest,2.9,No
2022/01/11,23:50,0.157,0.145,0.222,0.216,0.223,0.121,0.078,northwest,5.5,No
